• In Hungary
  • List of Countries
  • For 7 days
  • Water Temperature
  • Satellite Maps
  • Weather Map
  • News
  • Weather Widgets
  • user-avatar
    Login

    Hourly Weather Santa Cruz

    Today, 17 December, Sunday

    Time Temperature Precipitation Wind Pressure Humidity
    00:00 +29°C° 0 mm 3 mps 719 mmHg 66%
    01:00 +28°C° 0 mm 3 mps 718 mmHg 68%
    02:00 +28°C° 0 mm 3 mps 718 mmHg 70%
    03:00 +27°C° 0 mm 4 mps 718 mmHg 72%
    04:00 +27°C° 0 mm 4 mps 718 mmHg 74%
    05:00 +27°C° 0 mm 4 mps 718 mmHg 75%
    06:00 +27°C° 0 mm 5 mps 719 mmHg 74%
    07:00 +28°C° 0 mm 5 mps 719 mmHg 72%
    08:00 +29°C° 0 mm 5 mps 719 mmHg 71%
    09:00 +30°C° 0 mm 6 mps 719 mmHg 65%
    10:00 +32°C° 0 mm 6 mps 719 mmHg 60%
    11:00 +34°C° 0 mm 6 mps 719 mmHg 55%
    12:00 +35°C° 0 mm 6 mps 719 mmHg 51%
    13:00 +36°C° 0 mm 6 mps 718 mmHg 47%
    14:00 +39°C° 0 mm 5 mps 717 mmHg 43%
    15:00 +39°C° 0 mm 5 mps 717 mmHg 43%
    16:00 +37°C° 0 mm 4 mps 717 mmHg 43%
    17:00 +37°C° 0 mm 4 mps 716 mmHg 44%
    18:00 +35°C° 0 mm 3 mps 717 mmHg 50%
    19:00 +34°C° 0 mm 2 mps 718 mmHg 56%
    20:00 +31°C° 0 mm 1 mps 718 mmHg 62%
    21:00 +30°C° 0.3 mm 1 mps 719 mmHg 67%
    22:00 +29°C° 0.3 mm 1 mps 720 mmHg 71%
    23:00 +28°C° 0.3 mm 1 mps 721 mmHg 76%

    Tomorrow, 18 December, Monday

    Time Temperature Precipitation Wind Pressure Humidity
    00:00 +27°C° 1.6 mm 1 mps 721 mmHg 81%
    01:00 +26°C° 1.6 mm 1 mps 721 mmHg 87%
    02:00 +25°C° 1.6 mm 1 mps 721 mmHg 93%
    03:00 +25°C° 2 mm 2 mps 722 mmHg 93%
    04:00 +25°C° 2 mm 3 mps 722 mmHg 94%
    05:00 +24°C° 2 mm 3 mps 722 mmHg 95%
    06:00 +25°C° 0.4 mm 3 mps 723 mmHg 93%
    07:00 +25°C° 0.4 mm 4 mps 724 mmHg 92%
    08:00 +25°C° 0.4 mm 4 mps 725 mmHg 91%
    09:00 +26°C° 0.1 mm 4 mps 725 mmHg 84%
    10:00 +27°C° 0.1 mm 4 mps 725 mmHg 77%
    11:00 +28°C° 0.1 mm 5 mps 725 mmHg 70%
    12:00 +30°C° 0 mm 4 mps 724 mmHg 62%
    13:00 +33°C° 0 mm 4 mps 723 mmHg 55%
    14:00 +35°C° 0 mm 4 mps 722 mmHg 48%
    15:00 +34°C° 0 mm 3 mps 722 mmHg 48%
    16:00 +34°C° 0 mm 3 mps 721 mmHg 48%
    17:00 +34°C° 0 mm 3 mps 721 mmHg 49%
    18:00 +33°C° 0 mm 3 mps 721 mmHg 54%
    19:00 +30°C° 0 mm 2 mps 722 mmHg 60%
    20:00 +28°C° 0 mm 2 mps 722 mmHg 66%
    21:00 +28°C° 0 mm 2 mps 723 mmHg 68%
    22:00 +27°C° 0 mm 2 mps 723 mmHg 71%
    23:00 +26°C° 0 mm 2 mps 724 mmHg 73%

    Day after tomorrow, 19 December, Tuesday

    Time Temperature Precipitation Wind Pressure Humidity
    00:00 +26°C° 0 mm 2 mps 723 mmHg 74%
    01:00 +25°C° 0 mm 2 mps 723 mmHg 76%
    02:00 +25°C° 0 mm 2 mps 722 mmHg 77%
    03:00 +25°C° 0 mm 2 mps 723 mmHg 77%
    04:00 +25°C° 0 mm 2 mps 723 mmHg 76%
    05:00 +24°C° 0 mm 2 mps 723 mmHg 76%
    06:00 +26°C° 0 mm 2 mps 723 mmHg 72%
    07:00 +28°C° 0 mm 2 mps 724 mmHg 67%
    08:00 +29°C° 0 mm 2 mps 724 mmHg 62%
    09:00 +31°C° 0 mm 2 mps 724 mmHg 56%
    10:00 +34°C° 0 mm 2 mps 724 mmHg 50%
    11:00 +35°C° 0 mm 1 mps 724 mmHg 44%
    12:00 +37°C° 0 mm 2 mps 723 mmHg 41%
    13:00 +38°C° 0 mm 2 mps 722 mmHg 39%
    14:00 +38°C° 0 mm 2 mps 721 mmHg 36%
    15:00 +38°C° 0 mm 2 mps 720 mmHg 38%
    16:00 +37°C° 0 mm 2 mps 720 mmHg 40%
    17:00 +37°C° 0 mm 2 mps 719 mmHg 41%
    18:00 +35°C° 0 mm 2 mps 720 mmHg 47%
    19:00 +32°C° 0 mm 1 mps 720 mmHg 54%
    20:00 +30°C° 0 mm 1 mps 720 mmHg 60%
    21:00 +29°C° 0 mm 1 mps 721 mmHg 63%
    22:00 +28°C° 0 mm 1 mps 721 mmHg 67%
    23:00 +28°C° 0 mm 1 mps 721 mmHg 70%

    20 December, Wednesday

    Time Temperature Precipitation Wind Pressure Humidity
    00:00 +27°C° 0.2 mm 1 mps 721 mmHg 76%
    01:00 +26°C° 0.2 mm 1 mps 721 mmHg 82%
    02:00 +25°C° 0.2 mm 1 mps 720 mmHg 88%
    03:00 +24°C° 0.7 mm 1 mps 720 mmHg 90%
    04:00 +24°C° 0.7 mm 1 mps 720 mmHg 93%
    05:00 +24°C° 0.7 mm 1 mps 721 mmHg 95%
    06:00 +25°C° 0 mm 2 mps 721 mmHg 90%
    07:00 +26°C° 0 mm 2 mps 722 mmHg 85%
    08:00 +27°C° 0 mm 2 mps 722 mmHg 80%
    09:00 +29°C° 0 mm 3 mps 722 mmHg 72%
    10:00 +31°C° 0 mm 3 mps 722 mmHg 63%
    11:00 +34°C° 0 mm 4 mps 722 mmHg 54%
    12:00 +34°C° 0 mm 4 mps 721 mmHg 52%
    13:00 +35°C° 0 mm 4 mps 720 mmHg 50%
    14:00 +35°C° 0 mm 4 mps 719 mmHg 48%
    15:00 +35°C° 0 mm 4 mps 718 mmHg 50%
    16:00 +34°C° 0 mm 4 mps 718 mmHg 51%
    17:00 +34°C° 0 mm 3 mps 717 mmHg 53%
    18:00 +31°C° 0 mm 3 mps 718 mmHg 59%
    19:00 +30°C° 0 mm 3 mps 718 mmHg 65%
    20:00 +28°C° 0 mm 2 mps 718 mmHg 71%
    21:00 +28°C° 0 mm 2 mps 719 mmHg 75%
    22:00 +27°C° 0 mm 2 mps 719 mmHg 79%
    23:00 +26°C° 0 mm 2 mps 720 mmHg 83%

    21 December, Thursday

    Time Temperature Precipitation Wind Pressure Humidity
    00:00 +26°C° 0 mm 3 mps 719 mmHg 84%
    01:00 +26°C° 0 mm 3 mps 719 mmHg 85%
    02:00 +26°C° 0 mm 3 mps 718 mmHg 86%
    03:00 +26°C° 0 mm 3 mps 718 mmHg 85%
    04:00 +26°C° 0 mm 3 mps 718 mmHg 85%
    05:00 +26°C° 0 mm 3 mps 719 mmHg 84%
    06:00 +26°C° 0 mm 4 mps 719 mmHg 80%
    07:00 +27°C° 0 mm 4 mps 720 mmHg 75%
    08:00 +28°C° 0 mm 4 mps 720 mmHg 71%
    09:00 +29°C° 0 mm 5 mps 720 mmHg 67%
    10:00 +30°C° 0 mm 5 mps 720 mmHg 63%
    11:00 +32°C° 0 mm 5 mps 719 mmHg 58%
    12:00 +33°C° 0 mm 5 mps 719 mmHg 56%
    13:00 +33°C° 0 mm 5 mps 718 mmHg 54%
    14:00 +34°C° 0 mm 5 mps 717 mmHg 51%
    15:00 +34°C° 0 mm 4 mps 716 mmHg 53%
    16:00 +33°C° 0 mm 4 mps 716 mmHg 54%
    17:00 +33°C° 0 mm 4 mps 716 mmHg 56%
    18:00 +31°C° 0 mm 3 mps 716 mmHg 61%
    19:00 +30°C° 0 mm 2 mps 717 mmHg 67%
    20:00 +28°C° 0 mm 2 mps 717 mmHg 72%
    21:00 +28°C° 0.2 mm 2 mps 718 mmHg 75%
    22:00 +27°C° 0.2 mm 2 mps 718 mmHg 78%
    23:00 +27°C° 0.2 mm 2 mps 718 mmHg 80%

    22 December, Friday

    Time Temperature Precipitation Wind Pressure Humidity
    00:00 +27°C° 0.2 mm 2 mps 718 mmHg 82%
    01:00 +26°C° 0.2 mm 3 mps 718 mmHg 84%
    02:00 +26°C° 0.2 mm 3 mps 717 mmHg 86%
    03:00 +26°C° 0.1 mm 3 mps 717 mmHg 87%
    04:00 +25°C° 0.1 mm 3 mps 717 mmHg 88%
    05:00 +25°C° 0.1 mm 3 mps 717 mmHg 89%
    06:00 +25°C° 0.2 mm 3 mps 718 mmHg 89%
    07:00 +25°C° 0.2 mm 3 mps 719 mmHg 90%
    08:00 +25°C° 0.2 mm 3 mps 719 mmHg 91%
    09:00 +26°C° 0.7 mm 3 mps 719 mmHg 91%
    10:00 +26°C° 0.7 mm 4 mps 719 mmHg 91%
    11:00 +26°C° 0.7 mm 4 mps 719 mmHg 92%
    12:00 +27°C° 0.3 mm 4 mps 718 mmHg 86%
    13:00 +28°C° 0.3 mm 4 mps 717 mmHg 80%
    14:00 +29°C° 0.3 mm 4 mps 716 mmHg 74%
    15:00 +29°C° 0.1 mm 4 mps 716 mmHg 72%
    16:00 +30°C° 0.1 mm 4 mps 716 mmHg 71%
    17:00 +30°C° 0.1 mm 4 mps 715 mmHg 69%
    18:00 +29°C° 0.1 mm 4 mps 716 mmHg 74%
    19:00 +28°C° 0.1 mm 3 mps 717 mmHg 79%
    20:00 +27°C° 0.1 mm 3 mps 717 mmHg 83%
    21:00 +27°C° 0.1 mm 3 mps 717 mmHg 83%
    22:00 +27°C° 0.1 mm 3 mps 718 mmHg 83%
    23:00 +26°C° 0.1 mm 4 mps 718 mmHg 83%
    Show more